This is the latest recevied weather packets stored in our database for station/object WC4PEM-6. If no packets are shown the sender has not sent any weather packets the latest 10 day(s).
| Time | Temp. | Humidity | Pressure | Rain* | Wind** | Luminosity | Snow |
|---|---|---|---|---|---|---|---|
| 1778101202 | 33.33° C | 38% | 1014.4 hPa | 0 mm | - | - | - |
| 1778100970 | 33.89° C | 37% | 1014.5 hPa | 0 mm | - | - | - |
| 1778100902 | 33.89° C | 37% | 1014.5 hPa | 0 mm | - | - | - |
| 1778100752 | 33.89° C | 35% | 1014.5 hPa | 0 mm | - | - | - |
| 1778100690 | 33.89° C | 37% | 1014.6 hPa | 0 mm | - | - | - |
| 1778100602 | 33.89° C | 37% | 1014.6 hPa | 0 mm | - | - | - |
| 1778100386 | 33.89° C | 35% | 1014.5 hPa | 0 mm | - | - | - |
| 1778100302 | 33.89° C | 35% | 1014.5 hPa | 0 mm | - | - | - |
| 1778100088 | 34.44° C | 36% | 1014.5 hPa | 0 mm | - | - | - |
| 1778100003 | 34.44° C | 36% | 1014.5 hPa | 0 mm | - | - | - |
| 1778099809 | 33.89° C | 36% | 1014.5 hPa | 0 mm | - | - | - |
| 1778099702 | 33.89° C | 36% | 1014.5 hPa | 0 mm | - | - | - |
| 1778099455 | 33.89° C | 36% | 1014.6 hPa | 0 mm | - | - | - |
| 1778099402 | 33.89° C | 36% | 1014.6 hPa | 0 mm | - | - | - |
| 1778099159 | 33.89° C | 34% | 1014.8 hPa | 0 mm | - | - | - |
| 1778099103 | 33.89° C | 34% | 1014.8 hPa | 0 mm | - | - | - |
| 1778098888 | 33.89° C | 34% | 1014.6 hPa | 0 mm | - | - | - |
| 1778098802 | 33.89° C | 34% | 1014.6 hPa | 0 mm | - | - | - |
| 1778098571 | 33.89° C | 33% | 1014.6 hPa | 0 mm | - | - | - |
| 1778098502 | 33.89° C | 33% | 1014.6 hPa | 0 mm | - | - | - |
| 1778098203 | 33.33° C | 36% | 1014.6 hPa | 0 mm | - | - | - |
| 1778098040 | 33.33° C | 36% | 1014.7 hPa | 0 mm | - | - | - |
| 1778097903 | 33.33° C | 36% | 1014.7 hPa | 0 mm | - | - | - |
| 1778097694 | 33.33° C | 34% | 1014.5 hPa | 0 mm | - | - | - |
| 1778097603 | 33.33° C | 34% | 1014.5 hPa | 0 mm | - | - | - |
* Rain latest hour (hover to see other rain measurements)
** Current wind speed in m/s (hover to see current wind gust speed)